• In Uzbekistan
  • List of Countries
  • For 7 days
  • Water Temperature
  • Weather Map
  • Weather Widgets
  • user-avatar
    Login

    Hourly Weather Biskira

    Today, 20 September, Friday

    Time Temperature Precipitation Wind Pressure Humidity
    00:00 +32°C° 0 mm 2 mps 753 mmHg 32%
    01:00 +32°C° 0 mm 2 mps 752 mmHg 33%
    02:00 +33°C° 0 mm 3 mps 752 mmHg 33%
    03:00 +31°C° 0 mm 3 mps 751 mmHg 34%
    04:00 +31°C° 0 mm 3 mps 752 mmHg 34%
    05:00 +31°C° 0 mm 3 mps 752 mmHg 34%
    06:00 +31°C° 0 mm 3 mps 752 mmHg 34%
    07:00 +33°C° 0 mm 3 mps 752 mmHg 31%
    08:00 +35°C° 0 mm 3 mps 753 mmHg 28%
    09:00 +36°C° 0 mm 3 mps 753 mmHg 24%
    10:00 +37°C° 0 mm 3 mps 753 mmHg 22%
    11:00 +38°C° 0 mm 3 mps 753 mmHg 19%
    12:00 +39°C° 0 mm 3 mps 753 mmHg 16%
    13:00 +40°C° 0 mm 3 mps 752 mmHg 16%
    14:00 +40°C° 0 mm 3 mps 752 mmHg 15%
    15:00 +40°C° 0 mm 3 mps 752 mmHg 14%
    16:00 +40°C° 0 mm 3 mps 752 mmHg 16%
    17:00 +39°C° 0 mm 3 mps 752 mmHg 17%
    18:00 +38°C° 0 mm 2 mps 752 mmHg 19%
    19:00 +37°C° 0 mm 2 mps 753 mmHg 20%
    20:00 +37°C° 0 mm 3 mps 753 mmHg 21%
    21:00 +36°C° 0 mm 3 mps 753 mmHg 22%
    22:00 +36°C° 0 mm 3 mps 753 mmHg 22%
    23:00 +35°C° 0 mm 3 mps 753 mmHg 22%

    Tomorrow, 21 September, Saturday

    Time Temperature Precipitation Wind Pressure Humidity
    00:00 +35°C° 0 mm 3 mps 752 mmHg 22%
    01:00 +34°C° 0 mm 3 mps 752 mmHg 24%
    02:00 +34°C° 0 mm 3 mps 752 mmHg 25%
    03:00 +33°C° 0 mm 3 mps 752 mmHg 26%
    04:00 +33°C° 0 mm 3 mps 752 mmHg 27%
    05:00 +33°C° 0 mm 4 mps 752 mmHg 28%
    06:00 +32°C° 0 mm 4 mps 752 mmHg 29%
    07:00 +34°C° 0 mm 5 mps 753 mmHg 28%
    08:00 +35°C° 0 mm 7 mps 753 mmHg 27%
    09:00 +38°C° 0 mm 8 mps 754 mmHg 26%
    10:00 +38°C° 0 mm 7 mps 753 mmHg 25%
    11:00 +39°C° 0 mm 7 mps 753 mmHg 24%
    12:00 +40°C° 0 mm 6 mps 753 mmHg 22%
    13:00 +40°C° 0 mm 6 mps 752 mmHg 21%
    14:00 +41°C° 0 mm 6 mps 752 mmHg 20%
    15:00 +41°C° 0 mm 6 mps 751 mmHg 19%
    16:00 +40°C° 0 mm 6 mps 751 mmHg 20%
    17:00 +39°C° 0 mm 6 mps 751 mmHg 22%
    18:00 +39°C° 0 mm 5 mps 751 mmHg 23%
    19:00 +38°C° 0 mm 6 mps 751 mmHg 24%
    20:00 +38°C° 0 mm 6 mps 751 mmHg 24%
    21:00 +38°C° 0 mm 6 mps 752 mmHg 25%
    22:00 +36°C° 0 mm 7 mps 751 mmHg 27%
    23:00 +35°C° 0 mm 7 mps 751 mmHg 30%

    Day after tomorrow, 22 September, Sunday

    Time Temperature Precipitation Wind Pressure Humidity
    00:00 +34°C° 0 mm 8 mps 751 mmHg 33%
    01:00 +34°C° 0 mm 8 mps 751 mmHg 37%
    02:00 +33°C° 0 mm 8 mps 751 mmHg 42%
    03:00 +32°C° 0 mm 8 mps 751 mmHg 46%
    04:00 +32°C° 0 mm 7 mps 751 mmHg 48%
    05:00 +32°C° 0 mm 7 mps 751 mmHg 49%
    06:00 +30°C° 0 mm 7 mps 752 mmHg 50%
    07:00 +33°C° 0 mm 7 mps 752 mmHg 46%
    08:00 +34°C° 0 mm 7 mps 752 mmHg 42%
    09:00 +35°C° 0 mm 8 mps 752 mmHg 38%
    10:00 +36°C° 0 mm 7 mps 752 mmHg 35%
    11:00 +38°C° 0 mm 7 mps 752 mmHg 33%
    12:00 +38°C° 0 mm 6 mps 751 mmHg 30%
    13:00 +39°C° 0 mm 6 mps 751 mmHg 27%
    14:00 +40°C° 0 mm 5 mps 751 mmHg 24%
    15:00 +40°C° 0 mm 4 mps 750 mmHg 21%
    16:00 +40°C° 0 mm 5 mps 750 mmHg 21%
    17:00 +39°C° 0 mm 5 mps 750 mmHg 21%
    18:00 +38°C° 0 mm 6 mps 750 mmHg 21%
    19:00 +38°C° 0 mm 6 mps 751 mmHg 20%
    20:00 +38°C° 0 mm 6 mps 751 mmHg 20%
    21:00 +38°C° 0 mm 6 mps 751 mmHg 19%
    22:00 +36°C° 0 mm 6 mps 751 mmHg 20%
    23:00 +36°C° 0 mm 6 mps 751 mmHg 21%

    23 September, Monday

    Time Temperature Precipitation Wind Pressure Humidity
    00:00 +36°C° 0 mm 6 mps 751 mmHg 21%
    01:00 +35°C° 0 mm 6 mps 751 mmHg 27%
    02:00 +34°C° 0 mm 6 mps 751 mmHg 32%
    03:00 +33°C° 0 mm 6 mps 751 mmHg 37%
    04:00 +33°C° 0 mm 6 mps 751 mmHg 38%
    05:00 +33°C° 0 mm 5 mps 751 mmHg 40%
    06:00 +32°C° 0 mm 5 mps 752 mmHg 42%
    07:00 +34°C° 0 mm 5 mps 752 mmHg 37%
    08:00 +35°C° 0 mm 4 mps 752 mmHg 33%
    09:00 +36°C° 0 mm 4 mps 752 mmHg 29%
    10:00 +37°C° 0 mm 4 mps 752 mmHg 25%
    11:00 +38°C° 0 mm 4 mps 752 mmHg 22%
    12:00 +40°C° 0 mm 4 mps 752 mmHg 19%
    13:00 +40°C° 0 mm 3 mps 751 mmHg 18%
    14:00 +40°C° 0 mm 3 mps 751 mmHg 17%
    15:00 +40°C° 0 mm 2 mps 750 mmHg 16%
    16:00 +39°C° 0 mm 2 mps 751 mmHg 19%
    17:00 +38°C° 0 mm 3 mps 751 mmHg 21%
    18:00 +37°C° 0 mm 3 mps 751 mmHg 23%
    19:00 +37°C° 0 mm 3 mps 751 mmHg 25%
    20:00 +36°C° 0 mm 4 mps 752 mmHg 27%
    21:00 +36°C° 0 mm 4 mps 752 mmHg 28%
    22:00 +35°C° 0 mm 4 mps 752 mmHg 29%
    23:00 +35°C° 0 mm 4 mps 752 mmHg 30%

    24 September, Tuesday

    Time Temperature Precipitation Wind Pressure Humidity
    00:00 +34°C° 0 mm 4 mps 752 mmHg 31%
    01:00 +34°C° 0 mm 4 mps 752 mmHg 32%
    02:00 +34°C° 0 mm 4 mps 752 mmHg 33%
    03:00 +33°C° 0 mm 4 mps 752 mmHg 34%
    04:00 +33°C° 0 mm 4 mps 752 mmHg 36%
    05:00 +32°C° 0 mm 4 mps 752 mmHg 37%
    06:00 +32°C° 0 mm 4 mps 752 mmHg 39%
    07:00 +33°C° 0 mm 4 mps 752 mmHg 38%
    08:00 +34°C° 0 mm 4 mps 753 mmHg 37%
    09:00 +35°C° 0 mm 3 mps 753 mmHg 36%
    10:00 +36°C° 0 mm 3 mps 753 mmHg 33%
    11:00 +36°C° 0 mm 3 mps 752 mmHg 31%
    12:00 +37°C° 0 mm 2 mps 752 mmHg 28%
    13:00 +38°C° 0 mm 2 mps 752 mmHg 27%
    14:00 +38°C° 0 mm 2 mps 751 mmHg 25%
    15:00 +39°C° 0 mm 1 mps 751 mmHg 24%
    16:00 +37°C° 0 mm 1 mps 751 mmHg 25%
    17:00 +38°C° 0 mm 2 mps 751 mmHg 26%
    18:00 +37°C° 0 mm 2 mps 751 mmHg 27%
    19:00 +37°C° 0 mm 2 mps 751 mmHg 28%
    20:00 +36°C° 0 mm 2 mps 752 mmHg 29%
    21:00 +35°C° 0 mm 2 mps 752 mmHg 30%
    22:00 +35°C° 0 mm 2 mps 752 mmHg 32%
    23:00 +33°C° 0 mm 1 mps 752 mmHg 33%

    25 September, Wednesday

    Time Temperature Precipitation Wind Pressure Humidity
    00:00 +33°C° 0 mm 1 mps 751 mmHg 34%
    01:00 +32°C° 0 mm 2 mps 751 mmHg 39%
    02:00 +32°C° 0 mm 4 mps 751 mmHg 43%
    03:00 +30°C° 0 mm 5 mps 751 mmHg 48%
    04:00 +30°C° 0 mm 4 mps 751 mmHg 51%
    05:00 +29°C° 0 mm 3 mps 751 mmHg 54%
    06:00 +29°C° 0 mm 2 mps 751 mmHg 57%
    07:00 +30°C° 0 mm 3 mps 751 mmHg 53%
    08:00 +31°C° 0 mm 3 mps 752 mmHg 49%
    09:00 +33°C° 0 mm 3 mps 752 mmHg 45%
    10:00 +34°C° 0 mm 4 mps 752 mmHg 42%
    11:00 +35°C° 0 mm 4 mps 751 mmHg 38%
    12:00 +36°C° 0 mm 4 mps 751 mmHg 34%
    13:00 +37°C° 0 mm 3 mps 751 mmHg 33%
    14:00 +37°C° 0 mm 3 mps 750 mmHg 31%
    15:00 +37°C° 0 mm 2 mps 750 mmHg 30%
    16:00 +37°C° 0 mm 2 mps 750 mmHg 31%
    17:00 +37°C° 0 mm 2 mps 750 mmHg 32%
    18:00 +36°C° 0 mm 2 mps 750 mmHg 32%
    19:00 +35°C° 0 mm 1 mps 750 mmHg 34%
    20:00 +34°C° 0 mm 1 mps 751 mmHg 36%
    21:00 +33°C° 0 mm 1 mps 751 mmHg 38%
    22:00 +31°C° 0 mm 0 mps 751 mmHg 39%
    23:00 +31°C° 0 mm 0 mps 751 mmHg 40%
    Show more